Location: Bon Acre
(42.6442°N, 73.5758°W)
Time: 03:31:34
(UTC+00:00)

SL-08 R/B - Pass Details

Date: 19 March 2026
Orbit: 946 x 992 km, 83.0° (Epoch: 13 April)

Event Time Altitude Azimuth Distance (km) Brightness Sun altitude
Exits shadow 02:08:14 15° 220° (SW) 2,318 6.5 -32.7°
Maximum altitude 02:12:52 40° 284° (WNW) 1,365 5.6 -33.4°
Drops below altitude 10° 02:18:34 10° 354° (N) 2,675 7.2 -34.3°
Sets 02:21:15 0° 2° (N) 3,626 7.9 -34.6°
